Temp
9 9 10 10 10 9 8 7 7 9 8 8 8 8 8 7 7 7 6 6 5 5 4 4 4 4 5 5 5 6 6 5 5 5 4 4 4 3 3 3 3 3 4 4 4 5 5 5 5
9 9 10 10 9 9 7 7 8 8 7 7 8 7 7 7 6 6 5 5 4 4 3 4 4 4 5 5 5 5 4 4 3 2 2 2 3 3 3 3 3 3 3 3 4 4 4 5 5
9 9 10 10 9 9 8 8 8 7 7 7 7 7 6 6 6 5 5 4 4 3 3 4 4 4 5 4 3 3 2 2 2 2 2 2 2 2 3 3 3 2 2 2 2 3 3 4 4
9 9 10 10 9 8 8 8 8 8 8 7 7 6 6 6 5 5 4 4 3 3 3 4 4 4 3 2 2 2 2 2 2 2 2 2 2 2 2 2 2 2 2 2 3 3 3 3 3
9 9 10 9 8 7 8 8 8 8 7 7 6 6 6 5 5 4 3 3 4 3 3 3 3 2 2 2 2 2 2 2 2 2 2 2 1 1 1 2 2 2 2 2 3 3 3 3 3
9 9 9 8 8 7 8 7 7 6 7 6 6 6 5 5 4 3 4 3 3 3 3 3 2 2 2 2 2 2 1 1 1 2 2 2 2 1 1 1 1 2 2 2 2 2 3 3 3
8 8 9 8 8 8 8 7 7 7 7 6 6 6 6 4 4 4 4 3 3 3 3 3 2 2 2 2 2 2 1 1 1 1 1 1 2 2 2 2 2 2 2 2 2 2 3 2 3
9 9 9 8 8 8 8 7 7 6 6 6 6 6 4 5 4 4 4 3 3 3 3 2 2 2 2 2 2 1 1 1 1 1 1 1 1 2 2 2 2 2 2 2 2 2 3 3 3
9 8 8 8 8 8 8 7 7 6 6 6 6 6 5 5 4 4 3 3 3 3 2 2 2 2 2 2 2 1 1 1 1 1 1 1 1 1 2 2 2 2 2 2 2 2 2 2 2
8 8 8 8 8 8 8 7 7 7 6 7 6 5 5 5 4 3 3 3 3 3 2 2 2 2 2 2 2 1 1 1 1 1 1 1 1 1 1 2 1 1 2 2 2 2 2 2 2
8 8 8 8 8 8 7 7 7 7 8 7 6 5 4 4 3 3 3 3 2 2 2 2 2 2 2 2 2 2 2 2 1 1 1 1 1 1 1 2 1 1 1 1 1 2 2 1 1
8 8 8 8 8 8 8 7 7 7 8 8 5 5 4 4 3 3 3 3 3 3 2 2 2 2 2 2 2 2 2 2 2 2 1 1 1 1 1 1 1 1 1 1 1 1 1 1 0
8 8 8 8 8 8 8 7 7 7 8 7 6 5 5 4 3 3 3 3 3 3 3 2 2 2 2 2 2 2 2 2 2 2 1 1 1 1 1 1 1 1 1 1 1 0 0 0 -0
8 8 8 8 8 8 8 7 8 7 7 7 6 5 5 4 3 3 3 3 3 3 3 2 2 2 3 2 2 2 2 2 2 1 1 1 1 1 1 1 0 0 0 0 0 -0 -0 -0 -1
9 9 9 8 8 8 8 8 8 7 7 7 6 5 4 4 4 3 3 3 3 3 3 3 3 3 2 2 2 2 2 2 1 1 1 1 1 1 1 0 0 0 0 -0 -0 -0 -0 -0 -1
8 9 8 9 8 8 8 9 8 8 8 7 6 5 5 4 4 4 4 3 4 3 3 3 3 3 3 3 2 2 2 1 1 1 1 1 0 0 0 0 -0 -0 -0 -0 -1 -0 -0 -0 -1
8 8 8 8 9 8 8 8 9 8 8 7 6 6 5 5 5 4 4 4 4 4 4 3 3 3 3 3 3 2 2 1 1 1 0 0 0 -0 -0 -0 -0 -0 -1 -1 -1 -1 -1 -2 -2
8 8 8 8 8 8 8 9 9 8 8 7 6 6 6 5 5 5 5 5 5 4 4 4 4 4 3 3 3 2 2 1 1 1 0 0 -0 -0 -0 -1 -1 -1 -1 -1 -1 -2 -2 -2 -3
8 8 8 8 8 8 8 10 9 9 9 7 7 7 7 6 6 5 5 5 4 4 4 4 4 4 4 3 3 3 2 2 1 1 0 0 -0 -0 -0 -1 -1 -1 -1 -2 -2 -2 -3 -3 -3
8 8 8 8 8 8 8 10 10 10 9 8 7 7 8 8 7 6 5 5 5 5 5 4 4 4 4 3 3 2 2 1 1 0 0 0 -0 -1 -1 -1 -1 -1 -2 -2 -2 -2 -3 -3 -3
9 8 8 8 8 8 9 11 11 11 10 9 8 8 8 8 8 7 6 6 5 5 5 5 4 4 4 3 3 3 2 1 1 1 0 -0 -0 -1 -1 -1 -2 -2 -2 -2 -2 -3 -3 -4 -5
9 8 8 8 8 8 7 8 11 11 10 10 9 9 8 9 9 8 7 6 6 5 5 5 5 5 4 4 3 2 2 1 1 1 0 0 -0 -1 -1 -1 -2 -2 -2 -3 -3 -3 -4 -5 -5
8 8 8 7 7 7 8 6 11 11 11 11 10 9 9 9 9 8 7 7 6 6 6 5 5 5 4 4 3 2 2 1 1 1 0 0 -0 -1 -1 -1 -2 -2 -3 -3 -3 -4 -5 -5 -6
8 7 7 6 6 5 8 8 11 11 11 11 11 10 10 9 9 8 8 7 7 6 6 5 5 5 4 4 3 2 2 1 1 1 1 0 -0 -1 -1 -1 -2 -3 -3 -3 -4 -4 -5 -6 -6
7 7 6 6 4 5 8 7 11 11 11 11 10 10 10 9 9 8 8 7 7 6 5 5 5 4 4 3 3 2 2 2 1 1 0 -0 -1 -1 -1 -2 -2 -3 -3 -4 -4 -5 -5 -6 -7
7 7 6 7 4 6 8 8 12 11 11 11 10 10 10 10 9 9 8 7 7 6 6 5 5 4 4 3 3 2 2 2 1 1 0 -0 -1 -1 -2 -2 -2 -3 -4 -4 -5 -5 -6 -7 -7
7 7 7 6 6 6 8 10 11 11 11 11 10 10 10 9 9 9 9 8 7 7 6 6 5 5 4 4 3 3 2 2 1 1 0 -0 -1 -1 -2 -2 -3 -3 -4 -4 -5 -5 -6 -7 -7
7 7 6 6 3 5 7 9 11 11 11 10 10 9 9 9 9 9 9 8 8 7 6 6 5 5 4 4 3 3 2 2 1 1 0 -0 -1 -1 -2 -2 -3 -3 -4 -5 -5 -6 -7 -7 -8
7 6 6 6 6 2 2 9 10 10 10 9 9 8 8 8 8 8 8 8 8 8 7 6 5 5 5 4 3 3 2 2 2 1 0 -0 -1 -1 -2 -2 -3 -3 -4 -5 -5 -6 -7 -7 -8
6 6 6 6 6 6 5 8 10 10 9 9 9 8 8 8 7 8 8 8 8 8 7 7 6 5 5 4 4 3 3 2 2 1 0 -0 -1 -1 -2 -2 -3 -4 -4 -5 -6 -6 -7 -7 -8
Height
3195 3195 3194 3195 3198 3196 3195 3197 3197 3198 3197 3196 3195 3195 3195 3195 3195 3197 3193 3191 3190 3190 3189 3187 3187 3185 3182 3179 3176 3173 3170 3168 3166 3164 3162 3160 3159 3158 3158 3157 3157 3156 3155 3155 3154 3155 3153 3152 3152
3194 3194 3195 3193 3196 3195 3196 3196 3196 3195 3193 3193 3194 3194 3193 3193 3192 3192 3191 3190 3189 3189 3187 3186 3185 3182 3180 3176 3172 3169 3166 3164 3163 3161 3160 3159 3157 3157 3156 3155 3154 3153 3152 3151 3151 3150 3151 3149 3148
3193 3193 3195 3193 3193 3194 3195 3195 3195 3194 3192 3192 3192 3191 3191 3191 3191 3190 3188 3188 3188 3187 3185 3184 3181 3179 3175 3172 3169 3166 3164 3162 3161 3159 3158 3156 3155 3154 3153 3152 3151 3150 3150 3148 3147 3147 3147 3147 3145
3190 3193 3194 3193 3193 3193 3193 3193 3191 3192 3191 3191 3190 3190 3190 3189 3188 3187 3186 3186 3186 3185 3183 3181 3178 3175 3171 3169 3167 3166 3164 3162 3160 3158 3156 3155 3154 3152 3151 3150 3149 3148 3147 3147 3144 3143 3143 3143 3143
3190 3191 3192 3193 3193 3192 3192 3191 3189 3190 3190 3188 3189 3189 3188 3186 3186 3185 3186 3185 3184 3183 3181 3178 3175 3172 3170 3168 3166 3164 3163 3161 3159 3157 3155 3153 3152 3151 3149 3148 3146 3145 3143 3142 3142 3140 3138 3137 3136
3190 3190 3192 3193 3192 3192 3193 3190 3188 3189 3188 3188 3187 3187 3186 3185 3184 3185 3184 3183 3182 3181 3178 3175 3173 3171 3169 3167 3165 3163 3161 3160 3158 3156 3154 3152 3150 3148 3146 3145 3143 3142 3140 3138 3137 3135 3135 3133 3131
3190 3190 3192 3192 3191 3190 3191 3189 3188 3187 3188 3186 3183 3184 3185 3184 3183 3182 3181 3181 3179 3178 3175 3173 3172 3170 3169 3166 3164 3162 3160 3158 3156 3154 3152 3150 3147 3144 3142 3141 3140 3138 3136 3134 3132 3130 3129 3128 3127
3190 3191 3191 3192 3191 3190 3190 3189 3187 3186 3186 3185 3184 3184 3184 3183 3181 3181 3180 3179 3178 3175 3173 3171 3170 3168 3166 3164 3162 3161 3159 3157 3154 3152 3150 3148 3145 3143 3140 3137 3135 3133 3131 3129 3127 3125 3123 3122 3121
3189 3191 3190 3191 3190 3190 3189 3189 3187 3186 3184 3183 3183 3183 3182 3180 3179 3179 3178 3177 3175 3174 3172 3170 3169 3167 3165 3163 3161 3159 3157 3155 3153 3151 3148 3146 3144 3142 3139 3136 3133 3129 3125 3123 3121 3119 3117 3115 3113
3190 3189 3189 3190 3188 3188 3186 3187 3184 3185 3182 3182 3182 3181 3180 3179 3178 3177 3175 3173 3171 3171 3170 3169 3167 3166 3164 3162 3160 3158 3155 3153 3151 3149 3147 3144 3142 3139 3137 3134 3131 3127 3124 3120 3116 3114 3111 3109 3106
3189 3188 3189 3188 3187 3186 3185 3184 3182 3181 3181 3182 3182 3179 3178 3177 3177 3174 3174 3172 3171 3169 3168 3167 3166 3165 3163 3161 3159 3156 3154 3152 3150 3147 3145 3143 3140 3137 3135 3132 3129 3126 3122 3119 3115 3111 3107 3104 3101
3188 3188 3188 3187 3186 3186 3184 3183 3181 3180 3179 3180 3180 3178 3176 3176 3174 3173 3171 3170 3170 3169 3167 3166 3165 3163 3161 3160 3158 3156 3153 3151 3149 3147 3144 3141 3138 3135 3133 3130 3127 3124 3121 3117 3113 3109 3104 3100 3095
3188 3188 3187 3187 3186 3185 3184 3182 3181 3178 3178 3178 3178 3176 3175 3174 3173 3171 3169 3168 3168 3167 3166 3165 3163 3162 3160 3158 3156 3154 3152 3151 3148 3146 3143 3140 3137 3134 3131 3127 3125 3122 3118 3114 3110 3105 3101 3097 3092
3188 3187 3187 3186 3186 3184 3183 3181 3179 3178 3177 3176 3175 3174 3173 3172 3171 3170 3169 3168 3167 3166 3165 3164 3163 3161 3160 3157 3156 3154 3151 3149 3146 3144 3141 3139 3136 3133 3129 3126 3122 3119 3115 3111 3107 3103 3099 3094 3089
3187 3187 3186 3186 3185 3184 3182 3181 3179 3178 3176 3175 3174 3173 3171 3170 3169 3169 3168 3167 3166 3166 3165 3164 3162 3161 3158 3155 3154 3152 3149 3147 3145 3143 3140 3137 3134 3131 3127 3124 3120 3116 3112 3107 3103 3100 3095 3091 3085
3187 3186 3186 3186 3184 3183 3182 3179 3178 3176 3175 3174 3172 3172 3170 3169 3167 3167 3166 3166 3165 3165 3164 3163 3162 3159 3158 3157 3153 3152 3148 3146 3144 3141 3139 3136 3133 3129 3125 3121 3117 3113 3108 3104 3100 3096 3091 3086 3082
3187 3186 3184 3184 3183 3182 3181 3177 3176 3174 3173 3173 3171 3170 3168 3167 3166 3166 3165 3165 3165 3164 3163 3161 3161 3159 3157 3156 3154 3151 3149 3146 3143 3140 3137 3133 3130 3126 3123 3119 3116 3112 3107 3101 3096 3090 3086 3082 3078
3186 3186 3185 3183 3183 3180 3178 3176 3173 3173 3171 3171 3170 3168 3167 3165 3165 3165 3163 3163 3163 3163 3162 3161 3159 3157 3156 3154 3152 3149 3148 3144 3141 3139 3136 3133 3130 3125 3121 3118 3113 3108 3103 3098 3093 3087 3080 3075 3071
3185 3184 3183 3181 3181 3178 3175 3173 3172 3171 3170 3169 3167 3166 3165 3164 3163 3163 3162 3161 3161 3160 3159 3158 3157 3156 3154 3153 3150 3146 3147 3142 3140 3138 3135 3131 3128 3124 3120 3116 3111 3105 3101 3095 3089 3084 3078 3073 3067
3183 3182 3181 3180 3179 3177 3172 3170 3169 3169 3168 3167 3165 3164 3163 3162 3161 3161 3161 3160 3160 3159 3158 3158 3156 3154 3153 3151 3149 3146 3144 3141 3138 3135 3133 3130 3127 3123 3119 3114 3110 3104 3099 3094 3088 3083 3078 3071 3063
3181 3180 3180 3179 3176 3174 3171 3166 3166 3166 3166 3165 3163 3162 3161 3160 3159 3159 3159 3158 3158 3158 3157 3156 3154 3152 3151 3149 3147 3145 3141 3139 3137 3135 3132 3129 3125 3122 3117 3112 3108 3102 3097 3091 3085 3079 3071 3065 3059
3178 3178 3177 3176 3175 3174 3171 3168 3163 3163 3163 3163 3161 3160 3158 3158 3158 3158 3158 3157 3156 3155 3155 3153 3152 3150 3148 3146 3145 3143 3140 3138 3136 3133 3130 3127 3124 3120 3115 3111 3106 3102 3096 3090 3084 3078 3070 3063 3057
3179 3176 3174 3173 3171 3171 3169 3171 3160 3160 3159 3160 3160 3158 3156 3155 3154 3155 3155 3154 3154 3153 3152 3151 3149 3147 3146 3144 3143 3140 3138 3136 3133 3131 3128 3125 3122 3118 3113 3109 3104 3099 3094 3088 3083 3076 3069 3063 3056
3177 3176 3173 3171 3169 3169 3167 3168 3158 3158 3158 3158 3157 3157 3155 3153 3151 3151 3151 3151 3151 3151 3149 3148 3146 3144 3143 3141 3140 3137 3136 3133 3131 3129 3126 3123 3120 3115 3111 3107 3102 3097 3091 3086 3081 3073 3066 3061 3056
3175 3174 3174 3172 3170 3168 3165 3166 3155 3156 3156 3157 3157 3155 3153 3152 3150 3148 3147 3147 3146 3146 3146 3144 3143 3141 3140 3138 3137 3135 3133 3131 3129 3126 3124 3120 3117 3113 3108 3105 3100 3094 3089 3084 3078 3071 3065 3060 3055
3174 3174 3173 3172 3172 3166 3164 3158 3153 3153 3153 3153 3154 3153 3152 3150 3148 3147 3145 3144 3143 3142 3141 3140 3139 3137 3136 3135 3134 3132 3130 3128 3126 3124 3121 3118 3114 3110 3106 3102 3097 3092 3087 3082 3076 3069 3063 3058 3052
3172 3172 3172 3170 3168 3166 3158 3153 3150 3149 3150 3150 3151 3150 3149 3148 3146 3144 3142 3141 3140 3139 3138 3137 3135 3134 3133 3132 3131 3129 3127 3126 3123 3121 3118 3115 3111 3107 3103 3099 3094 3089 3085 3080 3074 3068 3062 3056 3050
3171 3172 3170 3168 3168 3164 3154 3150 3148 3148 3149 3148 3148 3147 3147 3146 3144 3142 3140 3139 3137 3136 3135 3134 3132 3131 3129 3128 3126 3125 3124 3122 3120 3118 3115 3112 3108 3104 3100 3096 3092 3087 3082 3077 3071 3065 3060 3054 3048
3167 3166 3168 3167 3165 3163 3162 3149 3148 3148 3147 3147 3147 3145 3143 3141 3140 3138 3137 3135 3133 3132 3131 3130 3129 3127 3126 3124 3123 3122 3120 3119 3117 3114 3111 3109 3105 3101 3098 3093 3089 3084 3079 3074 3068 3062 3057 3051 3046
3163 3162 3163 3166 3164 3161 3158 3149 3148 3147 3147 3146 3144 3142 3140 3137 3135 3133 3132 3130 3129 3128 3127 3126 3125 3124 3123 3122 3120 3118 3117 3115 3113 3111 3108 3105 3102 3099 3095 3091 3086 3081 3076 3071 3065 3059 3054 3049 3044
Wind_Speed
7 9 9 8 7 5 3 6 10 2 3 5 6 6 7 5 6 8 10 16 17 16 15 18 18 19 24 28 31 32 31 27 25 23 21 21 20 17 16 14 13 12 12 13 14 13 17 18 19
9 10 9 8 7 7 10 10 7 5 3 6 7 7 6 7 6 8 12 13 13 13 14 16 20 23 27 29 29 27 24 21 19 17 16 15 16 16 16 16 15 14 13 14 14 14 14 18 19
13 12 7 5 4 3 5 6 10 6 7 6 8 8 7 8 8 10 12 12 12 12 15 19 23 26 25 23 20 17 16 16 15 15 15 16 16 16 16 16 16 15 15 15 15 16 15 16 19
6 5 4 4 4 3 5 5 10 8 9 8 7 9 9 10 11 12 11 11 13 14 16 21 24 23 19 16 14 13 13 14 14 15 15 15 15 16 16 16 16 17 17 16 19 19 19 19 18
5 3 1 4 1 3 6 9 12 10 8 9 8 8 9 10 10 9 11 14 15 16 18 22 20 14 13 13 12 12 12 12 13 14 15 16 16 16 17 18 19 19 20 20 19 20 22 22 22
4 5 1 6 6 5 7 9 10 11 11 9 10 10 9 10 10 12 13 13 14 17 19 16 12 13 14 14 14 14 14 13 13 14 15 16 17 18 19 18 19 19 20 21 22 22 22 24 25
2 2 1 5 1 7 9 12 15 13 9 12 16 14 10 11 11 14 14 13 15 18 18 11 12 12 12 14 14 15 15 15 15 16 16 17 18 18 19 19 19 19 21 22 23 23 23 22 23
3 1 3 1 1 8 11 12 15 14 12 12 14 10 12 13 13 13 12 12 14 16 11 12 13 13 14 14 15 14 15 16 17 17 17 16 17 18 19 21 22 23 23 22 23 24 24 25 26
2 3 5 7 7 12 12 12 12 12 12 12 13 12 13 12 13 12 13 13 13 9 10 11 12 13 14 14 15 15 16 15 14 15 15 15 15 16 18 19 21 23 25 25 25 26 26 27 27
1 4 3 5 12 13 12 8 10 8 10 10 8 10 11 12 12 10 13 16 12 11 11 11 12 13 14 14 15 15 15 15 15 15 15 16 17 17 18 19 20 21 22 24 26 27 27 28 28
6 6 6 6 9 10 9 8 10 11 10 7 8 10 11 11 11 13 11 11 10 11 11 12 13 14 13 15 14 14 14 14 15 16 17 17 18 18 17 17 18 19 20 20 23 26 28 28 26
6 6 5 6 7 8 8 8 10 11 12 11 9 10 11 10 11 10 11 10 9 10 10 12 13 14 14 14 14 14 14 15 15 16 14 15 16 16 17 18 18 20 20 20 21 22 23 25 26
7 6 5 5 7 7 9 9 8 9 11 10 9 9 10 10 9 8 10 9 10 10 10 11 12 12 13 14 14 14 14 14 15 15 17 18 19 19 19 19 20 21 22 22 21 22 23 23 23
8 7 5 5 7 9 10 10 8 9 11 10 9 9 9 9 6 6 6 6 7 8 10 11 12 13 14 14 15 15 14 14 15 16 17 19 20 20 21 20 20 22 22 22 21 21 22 24 24
6 6 7 5 12 10 12 8 6 8 10 9 10 9 9 7 5 3 4 5 7 9 10 11 10 10 12 12 12 13 13 13 14 15 17 18 20 20 21 21 21 22 23 24 23 22 21 20 21
8 7 9 12 13 13 12 12 9 9 9 9 11 9 7 5 4 4 6 7 9 8 9 8 8 10 12 13 14 15 15 14 14 16 18 19 19 21 22 23 24 25 26 26 25 24 23 23 22
6 8 9 12 15 14 15 17 13 10 10 10 11 8 6 4 4 2 5 7 9 8 7 7 8 10 12 14 15 15 16 16 17 17 17 18 20 22 23 24 24 24 25 26 28 29 28 26 24
6 8 7 12 15 18 19 14 14 9 9 10 10 9 4 4 4 3 2 4 5 6 7 7 7 9 10 13 14 14 14 14 15 16 18 19 21 22 23 23 24 25 26 27 28 29 32 31 29
13 11 8 13 14 19 18 14 12 8 8 9 11 9 5 4 4 3 4 3 3 4 4 5 6 8 9 11 12 14 14 15 16 17 18 19 21 21 22 23 24 26 26 28 30 30 31 31 31
9 9 8 11 13 19 13 12 11 7 5 9 11 9 6 5 5 4 5 6 5 5 6 6 7 8 11 12 13 13 14 15 15 16 17 19 19 20 21 22 24 25 26 28 29 29 29 29 32
7 8 9 13 17 18 12 8 5 5 6 8 9 9 8 7 7 6 6 6 6 7 9 8 9 10 11 13 14 15 15 15 15 15 17 18 19 20 21 23 23 25 28 29 31 34 35 35 34
7 6 8 12 14 6 8 7 6 7 7 8 9 9 8 8 9 7 8 9 9 10 10 10 10 12 13 14 14 15 15 16 16 16 16 17 19 20 21 23 24 25 26 28 30 33 34 35 35
7 8 10 12 11 9 6 6 5 7 7 7 8 8 9 9 10 8 7 11 12 12 12 12 12 14 14 15 15 15 16 16 16 16 17 18 19 21 22 23 24 26 26 28 30 32 33 34 33
9 9 8 4 2 3 4 7 8 7 4 6 8 9 9 10 11 11 10 12 12 12 13 14 14 15 15 15 16 16 17 17 17 17 18 18 19 21 22 24 25 25 26 28 29 31 33 33 33
3 5 3 1 1 5 4 8 14 10 8 7 9 9 10 11 12 12 12 12 13 13 14 15 15 16 17 17 17 17 17 18 18 18 18 18 19 21 22 24 25 26 26 27 29 31 33 34 32
5 4 2 3 2 4 8 9 4 6 7 7 10 11 11 12 13 13 14 15 15 15 15 15 16 16 16 17 17 17 17 18 18 18 18 19 20 21 23 24 25 26 27 27 28 30 32 33 29
3 4 4 4 6 4 5 8 11 7 8 7 9 9 11 13 14 15 15 14 16 16 17 17 17 17 17 17 17 18 18 18 18 18 18 19 20 21 23 24 25 26 27 27 28 30 30 31 30
10 7 4 5 1 4 6 9 11 4 4 4 3 12 17 16 17 17 16 16 16 16 17 17 18 17 17 17 17 18 18 18 18 18 18 19 20 21 23 24 25 26 27 27 28 30 29 30 29
8 11 8 6 6 5 2 5 5 13 8 9 11 21 25 23 22 21 19 17 17 17 17 17 18 18 18 18 17 17 18 18 18 18 18 19 20 21 23 24 25 26 27 27 28 30 29 28 27
11 11 10 6 4 6 4 12 14 4 10 16 25 25 24 27 27 23 22 20 18 17 17 17 18 18 19 19 19 18 17 17 17 18 18 19 20 22 23 24 25 26 27 28 28 29 29 27 26
Wind_Direction
314 332 351 349 16 7 30 150 171 334 318 315 321 323 318 304 283 281 297 303 310 320 319 313 316 316 318 318 317 314 311 309 307 306 307 307 309 313 312 311 307 301 297 293 290 284 285 283 283
295 308 323 346 10 54 95 145 210 323 303 323 321 328 337 324 324 311 304 308 310 315 315 317 321 323 320 318 315 312 310 311 316 322 321 315 311 310 308 308 308 306 300 293 289 283 277 281 281
283 291 308 352 26 49 181 212 285 308 317 317 324 330 326 332 329 320 313 313 317 321 323 324 322 322 321 321 324 327 327 326 325 324 322 320 316 312 310 308 307 306 304 303 299 295 288 280 281
261 271 277 342 335 325 293 313 310 305 309 318 331 329 325 331 331 325 324 328 327 328 324 323 327 328 332 344 349 344 336 328 324 321 321 321 320 319 317 313 309 307 304 301 300 297 293 288 280
158 112 92 343 230 200 306 317 298 314 324 318 320 321 326 330 326 332 339 336 334 328 327 330 332 342 350 348 343 339 335 330 326 325 325 324 324 322 319 316 312 308 304 301 297 295 294 291 288
145 112 250 6 191 231 310 318 306 315 326 318 311 328 325 327 339 338 338 337 331 332 332 334 348 350 346 345 344 343 342 340 336 332 329 326 323 320 315 314 310 308 305 303 300 296 292 291 290
98 132 102 313 283 304 321 316 314 320 329 315 324 335 344 337 336 339 344 337 337 334 338 356 354 348 344 343 346 345 343 342 341 335 330 324 321 319 317 315 310 306 303 300 297 295 292 289 288
33 87 134 167 267 295 302 306 314 312 307 310 312 324 334 332 335 345 337 344 338 340 359 358 350 346 347 346 345 346 345 343 337 331 329 328 325 322 321 319 317 315 312 309 304 301 297 294 292
71 112 307 208 243 296 295 289 289 294 297 304 316 324 325 334 344 341 337 340 355 12 3 356 350 348 350 348 348 347 341 339 337 332 331 331 329 327 325 323 323 321 319 316 313 310 308 304 300
8 237 287 290 292 300 298 303 289 296 294 311 325 328 327 341 345 337 342 356 12 6 2 356 356 354 353 353 350 349 347 346 346 342 339 336 334 334 333 332 330 326 324 320 318 316 312 306 304
337 293 312 298 291 307 308 306 296 307 311 331 346 329 335 347 340 348 353 2 9 359 359 359 357 357 358 352 356 355 355 353 350 348 346 343 342 340 339 340 337 334 329 324 322 321 319 314 307
339 332 334 305 313 324 323 300 300 314 319 347 348 329 338 345 344 348 354 7 9 358 2 1 358 357 359 0 1 1 359 356 355 351 351 350 345 342 340 340 338 340 338 332 330 331 328 322 316
354 349 325 306 331 321 323 320 310 302 330 340 334 330 336 343 348 354 355 357 357 358 1 358 358 359 4 5 3 358 356 356 356 356 355 352 348 346 343 341 343 347 347 344 339 339 335 329 322
336 342 335 335 345 326 321 321 318 310 330 333 330 332 337 340 351 346 352 339 347 355 357 1 4 7 6 8 2 357 355 354 355 356 350 351 351 352 352 351 349 350 349 349 349 344 341 337 328
351 1 354 22 344 328 323 328 312 317 327 331 330 332 333 335 333 336 326 338 13 5 357 2 11 8 9 8 3 355 356 351 349 348 350 355 358 358 358 357 355 352 355 355 351 349 345 341 333
10 10 352 348 341 336 324 315 324 313 328 333 328 329 320 319 320 333 346 352 6 4 1 0 8 10 5 359 1 355 356 350 347 350 357 1 2 5 4 4 0 359 358 357 353 353 348 346 343
10 346 340 332 331 329 322 314 317 312 323 332 322 324 303 302 304 316 347 5 359 355 356 5 5 6 2 359 356 354 354 352 353 355 359 2 4 4 2 2 1 2 359 357 355 352 352 352 352
303 311 302 314 315 320 319 321 305 301 307 323 325 324 301 290 299 306 337 358 349 345 353 359 356 355 354 354 349 350 349 352 355 355 360 359 1 0 359 358 359 357 358 355 353 352 349 350 351
296 289 297 299 306 309 314 308 291 291 303 318 322 321 315 295 280 288 289 287 287 311 329 327 336 335 340 337 341 351 338 351 351 355 355 357 359 357 355 355 356 355 354 353 350 350 348 345 342
285 282 279 298 304 310 302 302 282 290 313 309 311 319 306 296 287 264 267 280 292 301 308 311 317 326 329 331 329 335 344 344 345 352 349 355 355 353 351 354 355 352 351 352 345 343 345 341 338
279 289 289 301 308 313 306 298 243 304 316 316 313 316 297 287 285 274 274 281 288 290 297 303 307 314 315 317 325 330 338 338 337 342 349 350 349 350 352 352 353 351 351 347 344 345 342 343 344
299 292 286 298 306 304 306 297 276 272 298 327 314 319 303 289 294 294 287 286 281 281 286 293 302 306 310 315 317 320 328 329 332 340 344 344 347 349 349 351 350 352 350 345 343 343 341 341 342
297 297 296 302 297 290 273 245 259 259 278 333 323 317 310 291 282 281 277 275 281 286 290 293 296 299 302 308 311 313 318 324 329 334 339 344 348 347 347 351 350 352 349 345 345 342 340 342 346
288 295 291 287 272 276 286 227 282 278 268 305 321 318 316 304 289 282 275 275 282 288 292 294 293 295 297 300 305 310 314 322 327 333 337 342 346 345 346 349 349 350 348 346 346 342 340 344 351
257 297 309 323 317 222 216 235 264 268 275 292 310 311 315 317 307 289 281 275 277 280 284 287 291 292 292 297 302 308 312 319 325 331 336 339 344 344 345 349 348 349 348 347 345 340 341 346 356
285 272 228 275 252 279 243 240 263 290 291 285 302 311 317 316 316 306 294 281 276 275 277 281 285 289 294 297 302 306 312 317 323 330 334 338 341 343 344 348 347 347 346 348 344 340 343 349 356
257 232 230 269 265 280 251 263 279 291 280 289 311 321 327 324 319 316 309 300 291 287 284 286 290 293 297 299 301 306 312 318 323 329 332 335 339 340 341 346 346 344 344 345 343 342 344 348 352
249 240 232 227 220 262 275 277 251 301 302 270 355 343 340 329 324 317 310 306 298 292 286 287 290 293 296 298 302 307 312 317 323 326 328 333 337 338 340 343 343 342 343 343 343 344 346 347 351
250 237 235 237 239 187 289 277 234 314 312 257 304 318 319 317 313 306 305 302 299 297 294 289 289 291 294 296 301 306 312 316 321 323 327 332 334 336 338 341 341 341 341 342 342 343 347 345 346
261 248 235 236 235 237 266 275 287 301 327 310 308 308 305 310 310 303 292 291 296 294 293 293 293 294 296 301 303 307 311 315 318 321 325 330 332 333 337 339 339 341 340 342 342 342 344 343 343